Location: Cruquius
(52.3348°N, 4.6319°E)
Time: 13:14:15
(UTC+00:00)

Cosmos 1900 - Pass Details

Date: 12 May 2021
Orbit: 689 x 733 km, 66.1° (Epoch: 19 June)

Event Time Altitude Azimuth Distance (km) Brightness Sun altitude
Exits shadow 22:14:50 22° 198° (SSW) 1,551 5.7 -17.0°
Maximum altitude 22:18:01 62° 124° (SE) 817 4.4 -17.2°
Drops below altitude 10° 22:22:59 10° 45° (NE) 2,210 7.2 -17.4°
Sets 22:25:21 0° 42° (NE) 3,127 8.1 -17.6°
